Location: Boiro
(42.6475°N, 8.8834°W)
Time: 17:29:33
(UTC+01:00)

Transit 2A - Pass Details

Date: 01 December 2021
Orbit: 591 x 967 km, 66.7° (Epoch: 20 January)

Event Time Altitude Azimuth Distance (km) Brightness Sun altitude
Rises 04:45:26 0° 276° (W) 3,420 - -43.5°
Reaches altitude 10° 04:49:23 10° 303° (WNW) 2,566 - -42.8°
Maximum altitude 04:52:09 13° 331° (NNW) 2,383 - -42.3°
Drops below altitude 10° 04:55:01 10° 359° (N) 2,656 - -41.8°
Exits shadow 04:57:00 - 13° (NNE) 3,059 9.3 -41.4°
Sets 04:59:16 0° 25° (NNE) 3,645 9.8 -41.0°
